{"data":{"norad_id":65502,"intl_designator":"2025-198L","name":"STARLINK-35114","alt_names":[],"object_type":"PAYLOAD","status":"ACTIVE","operator":null,"country":"US","launch_date":"2025-09-05","launch_site_code":"AFETR","launch_vehicle":null,"mission":null,"orbit_class":"UNKNOWN","rcs_meters":null,"size_class":null,"mass_kg":null,"dimensions":null,"purposes":["comms"],"wikipedia_slug":null,"has_3d_model":false,"image_url":null,"decayed_at":null,"tle_current":{"epoch":"2026-05-24T17:51:06.730560Z","epoch_age_seconds":93313,"freshness":"FRESH","line1":"1 65502U 25198L   26144.74382790  .00024782  00000+0  74219-3 0  9998","line2":"2 65502  53.1589 277.0764 0001414  52.4063 307.7068 15.34399225 40271","mean_motion":15.34399225,"eccentricity":0.0001414,"inclination_deg":53.1589,"raan_deg":277.0764,"arg_perigee_deg":52.4063,"mean_anomaly_deg":307.7068,"bstar":0.00074219,"rev_number":4027,"period_min":93.847805482305,"perigee_km":461.73824853572,"apogee_km":463.67283880707,"semimajor_km":6840.8425436714,"source":"CELESTRAK","updated_at":"2026-05-25T13:38:20.841628Z"}}}